| time (UTC) | temp F | wind direction | speed knots | gust knots | rain 1hr in | rain 24hr in | rain mn in | humidity % | barometer mb |
| 20260906043050 | 72 | 199 | 0.0 | 0.0 | 0.00 | 0.00 | 0.00 | 58 | 1012.7 |
| 20260906041549 | 72 | 199 | 0.0 | 0.0 | 0.00 | 0.00 | 0.00 | 58 | 1012.7 |
| 20260906040059 | 72 | 199 | 0.0 | 0.0 | 0.00 | 0.00 | 0.00 | 58 | 1012.8 |
| 20260906034547 | 72 | 199 | 0.0 | 0.0 | 0.00 | 0.00 | 0.00 | 57 | 1012.7 |
| 20260906033050 | 72 | 199 | 0.0 | 0.0 | 0.00 | 0.00 | 0.00 | 57 | 1012.7 |
| 20260906031547 | 73 | 200 | 0.0 | 1.7 | 0.00 | 0.00 | 0.00 | 57 | 1013.0 |
| 20260906030047 | 73 | 200 | 0.0 | 0.9 | 0.00 | 0.00 | 0.00 | 57 | 1012.9 |
| 20260906024551 | 74 | 200 | 0.0 | 0.9 | 0.00 | 0.00 | 0.00 | 57 | 1012.5 |
| 20260906023046 | 74 | 200 | 0.0 | 1.7 | 0.00 | 0.00 | 0.00 | 57 | 1012.3 |
| 20260906021546 | 74 | 198 | 0.0 | 0.9 | 0.00 | 0.00 | 0.00 | 57 | 1012.1 |
| 20260906020045 | 74 | 198 | 0.0 | 0.0 | 0.00 | 0.00 | 0.00 | 57 | 1012.0 |
| 20260906014615 | 74 | 198 | 0.0 | 0.0 | 0.00 | 0.00 | 0.00 | 57 | 1012.2 |
| 20260906013049 | 75 | 198 | 0.0 | 0.0 | 0.00 | 0.00 | 0.00 | 57 | 1012.2 |
| 20260906011544 | 75 | 198 | 0.0 | 0.0 | 0.00 | 0.00 | 0.00 | 57 | 1012.1 |
| 20260906010049 | 75 | 198 | 0.0 | 0.0 | 0.00 | 0.00 | 0.00 | 58 | 1011.6 |
| 20260906004544 | 76 | 198 | 0.0 | 0.0 | 0.00 | 0.00 | 0.00 | 58 | 1011.7 |
| 20260906003044 | 76 | 198 | 0.0 | 0.0 | 0.00 | 0.00 | 0.00 | 59 | 1011.6 |
| 20260906001543 | 78 | 200 | 0.0 | 1.7 | 0.00 | 0.00 | 0.00 | 60 | 1011.5 |
| 20260906000044 | 79 | 200 | 0.0 | 0.0 | 0.00 | 0.00 | 0.00 | 59 | 1011.2 |
| 20260905234542 | 80 | 200 | 0.0 | 0.0 | 0.00 | 0.00 | 0.00 | 57 | 1011.0 |
| 20260905233046 | 81 | 200 | 0.0 | 1.7 | 0.00 | 0.00 | 0.00 | 55 | 1010.7 |
| 20260905231543 | 82 | 200 | 0.0 | 1.7 | 0.00 | 0.00 | 0.00 | 54 | 1010.8 |
| 20260905230042 | 83 | 200 | 0.9 | 2.6 | 0.00 | 0.00 | 0.00 | 52 | 1010.9 |
| 20260905224541 | 84 | 200 | 0.0 | 1.7 | 0.00 | 0.00 | 0.00 | 52 | 1010.9 |
| 20260905223042 | 83 | 200 | 0.0 | 2.6 | 0.00 | 0.00 | 0.00 | 53 | 1010.7 |
| 20260905221603 | 83 | 200 | 0.0 | 3.5 | 0.00 | 0.00 | 0.00 | 53 | 1010.8 |
| 20260905220040 | 82 | 190 | 0.0 | 2.6 | 0.00 | 0.00 | 0.00 | 53 | 1010.8 |
| 20260905214538 | 81 | 250 | 0.0 | 3.5 | 0.00 | 0.00 | 0.00 | 54 | 1011.0 |
| 20260905213055 | 79 | 217 | 2.6 | 5.2 | 0.00 | 0.00 | 0.00 | 53 | 1011.2 |
| 20260905211540 | 77 | 177 | 0.9 | 6.1 | 0.00 | 0.00 | 0.00 | 54 | 1011.3 |
| 20260905210048 | 77 | 202 | 0.9 | 3.5 | 0.00 | 0.00 | 0.00 | 53 | 1011.5 |
| 20260905204543 | 75 | 213 | 0.0 | 0.9 | 0.00 | 0.00 | 0.00 | 56 | 1011.7 |
| 20260905203040 | 73 | 213 | 0.0 | 2.6 | 0.00 | 0.00 | 0.00 | 58 | 1011.8 |
| 20260905201535 | 72 | 228 | 0.0 | 2.6 | 0.00 | 0.00 | 0.00 | 56 | 1011.9 |
| 20260905200041 | 72 | 244 | 0.0 | 2.6 | 0.00 | 0.00 | 0.00 | 57 | 1012.1 |
| 20260905194534 | 72 | 243 | 0.0 | 1.7 | 0.00 | 0.00 | 0.00 | 57 | 1012.0 |
| 20260905193034 | 72 | 244 | 1.7 | 6.1 | 0.00 | 0.00 | 0.00 | 57 | 1012.4 |
| 20260905191532 | 72 | 182 | 0.0 | 6.1 | 0.00 | 0.00 | 0.00 | 57 | 1011.8 |
| 20260905190030 | 73 | 161 | 0.9 | 2.6 | 0.00 | 0.00 | 0.00 | 60 | 1011.7 |
| 20260905184540 | 76 | 182 | 2.6 | 4.3 | 0.00 | 0.00 | 0.00 | 59 | 1012.2 |
| 20260905183030 | 83 | 255 | 4.3 | 17.4 | 0.00 | 0.00 | 0.00 | 44 | 1012.5 |
| 20260905181529 | 93 | 253 | 7.8 | 23.5 | 0.00 | 0.00 | 0.00 | 33 | 1011.5 |
| 20260905180028 | 97 | 312 | 1.7 | 11.3 | 0.00 | 0.00 | 0.00 | 31 | 1011.3 |
| 20260905174525 | 98 | 256 | 0.9 | 7.0 | 0.00 | 0.00 | 0.00 | 30 | 1012.0 |
| 20260905173024 | 99 | 236 | 0.0 | 0.9 | 0.00 | 0.00 | 0.00 | 36 | 1012.3 |
| 20260905171524 | 99 | 235 | 1.7 | 5.2 | 0.00 | 0.00 | 0.00 | 32 | 1012.6 |
| 20260905170020 | 98 | 190 | 0.0 | 3.5 | 0.00 | 0.00 | 0.00 | 35 | 1012.5 |
| 20260905164517 | 97 | 185 | 0.0 | 5.2 | 0.00 | 0.00 | 0.00 | 37 | 1012.8 |
| 20260905163016 | 97 | 144 | 0.9 | 2.6 | 0.00 | 0.00 | 0.00 | 35 | 1013.2 |
| 20260905161514 | 95 | 147 | 0.0 | 2.6 | 0.00 | 0.00 | 0.00 | 41 | 1013.3 |
| 20260905160010 | 93 | 147 | 0.0 | 1.7 | 0.00 | 0.00 | 0.00 | 43 | 1013.3 |
| 20260905154507 | 91 | 147 | 0.0 | 2.6 | 0.00 | 0.00 | 0.00 | 43 | 1013.4 |
| 20260905153008 | 92 | 147 | 0.9 | 3.5 | 0.00 | 0.00 | 0.00 | 44 | 1013.6 |
| 20260905151504 | 90 | 147 | 0.0 | 3.5 | 0.00 | 0.00 | 0.00 | 49 | 1013.3 |
| 20260905150059 | 90 | 146 | 0.0 | 1.7 | 0.00 | 0.00 | 0.00 | 50 | 1013.5 |
| 20260905144556 | 89 | 140 | 0.0 | 0.9 | 0.00 | 0.00 | 0.00 | 51 | 1013.6 |
| 20260905141549 | 86 | 117 | 0.0 | 0.0 | 0.00 | 0.00 | 0.00 | 53 | 1013.6 |
| 20260905140046 | 85 | 117 | 0.0 | 0.0 | 0.00 | 0.00 | 0.00 | 55 | 1013.6 |
| 20260905134546 | 84 | 117 | 0.0 | 0.0 | 0.00 | 0.00 | 0.00 | 55 | 1013.8 |
| 20260905131536 | 80 | 115 | 0.0 | 0.0 | 0.00 | 0.00 | 0.00 | 54 | 1013.8 |
| 20260905130034 | 79 | 115 | 0.0 | 0.0 | 0.00 | 0.00 | 0.00 | 54 | 1013.8 |
| 20260905124534 | 78 | 115 | 0.0 | 0.0 | 0.00 | 0.00 | 0.00 | 54 | 1013.8 |
| 20260905121533 | 75 | 115 | 0.0 | 0.0 | 0.00 | 0.00 | 0.00 | 62 | 1013.8 |
| 20260905120033 | 74 | 115 | 0.0 | 0.0 | 0.00 | 0.00 | 0.00 | 63 | 1013.8 |
| 20260905114533 | 73 | 115 | 0.0 | 0.0 | 0.00 | 0.00 | 0.00 | 61 | 1013.5 |
| 20260905111530 | 73 | 115 | 0.0 | 0.0 | 0.00 | 0.00 | 0.00 | 60 | 1013.1 |
| 20260905110030 | 73 | 115 | 0.0 | 1.7 | 0.00 | 0.00 | 0.00 | 60 | 1012.8 |
| 20260905104533 | 73 | 115 | 0.9 | 1.7 | 0.00 | 0.00 | 0.00 | 59 | 1012.4 |
| 20260905101533 | 73 | 115 | 0.0 | 0.0 | 0.00 | 0.00 | 0.00 | 58 | 1012.3 |
| 20260905100035 | 74 | 115 | 0.0 | 0.9 | 0.00 | 0.00 | 0.00 | 58 | 1012.4 |
| 20260905094527 | 74 | 115 | 0.0 | 0.9 | 0.00 | 0.00 | 0.00 | 58 | 1012.5 |
| 20260905091527 | 74 | 115 | 0.0 | 0.0 | 0.00 | 0.00 | 0.00 | 58 | 1012.2 |
| 20260905090025 | 74 | 115 | 0.0 | 0.0 | 0.00 | 0.00 | 0.00 | 58 | 1012.4 |
| 20260905084523 | 74 | 115 | 0.0 | 0.0 | 0.00 | 0.00 | 0.00 | 57 | 1012.6 |
| 20260905081523 | 75 | 115 | 0.0 | 0.0 | 0.00 | 0.00 | 0.00 | 57 | 1012.8 |
| 20260905080031 | 75 | 115 | 0.0 | 0.9 | 0.00 | 0.00 | 0.00 | 57 | 1013.0 |
| 20260905074516 | 76 | 115 | 0.0 | 0.0 | 0.00 | 0.00 | 0.00 | 57 | 1012.9 |
| 20260905071514 | 77 | 115 | 0.0 | 0.0 | 0.00 | 0.00 | 0.00 | 56 | 1013.1 |
| 20260905070027 | 77 | 115 | 0.0 | 0.9 | 0.00 | 0.00 | 0.00 | 56 | 1013.2 |
| 20260905064510 | 77 | 115 | 0.9 | 3.5 | 0.00 | 0.00 | 0.00 | 56 | 1013.4 |
| 20260905061506 | 77 | 117 | 0.0 | 1.7 | 0.00 | 0.00 | 0.00 | 57 | 1013.8 |
| 20260905060005 | 77 | 117 | 0.0 | 1.7 | 0.00 | 0.00 | 0.00 | 57 | 1014.1 |
| 20260905054508 | 78 | 117 | 0.9 | 2.6 | 0.00 | 0.00 | 0.00 | 59 | 1014.3 |
| 20260905051502 | 78 | 117 | 0.0 | 0.0 | 0.00 | 0.00 | 0.00 | 59 | 1014.5 |
| 20260905050001 | 78 | 117 | 0.0 | 0.0 | 0.00 | 0.00 | 0.00 | 59 | 1014.4 |
| 20260905044600 | 79 | 117 | 0.0 | 0.0 | 0.00 | 0.00 | 0.00 | 60 | 1014.5 |